Location: Unspecified
(0.0000°N, 0.0000°E)
Time: 11:23:54
(UTC+00:00)

A-11 Canister half - Pass Details

Date: 26 November 2019
Orbit: 1526 x 1683 km, 47.3° (Epoch: 13 December)

Event Time Altitude Azimuth Distance (km) Brightness Sun altitude
Rises 05:40:06 0° 206° (SSW) 4,861 11.6 -1.6°
Reaches altitude 10° 05:43:27 10° 199° (SSW) 3,892 11.2 -0.9°
Maximum altitude 05:52:47 43° 130° (SE) 2,203 10.7 1.3°
Drops below altitude 10° 06:02:11 10° 62° (ENE) 3,938 11.8 3.5°
Sets 06:05:34 0° 55° (NE) 4,923 12.2 4.3°
